カタログに戻る

STARLINK-36170

運用中通信VLEO
NORAD 67083·PAYLOAD·🇺🇸 United States

打ち上げ Dec 14, 2025 から Vandenberg Space Force Base

Loading…

次のパス (今後24時間)

TLE

最新Source: CelesTrak SupGP

元期: Sep 14, 2026, 22:43 UTC

1 67083C 25298J   26257.94701389  .00046051  00000+0  38583-2 0  2574
2 67083  69.9998 257.3400 0003840 266.2908 121.6097 14.98314078    17

AllMySatでSTARLINK-36170をリアルタイム追跡

Download on the App Store